Date String (YYYY-MM-DD hh:mm:ss) UTC,Instrument flags,Ambient pressure (hPa),Sample flow (lpm),Bypass flow (lpm),Sample temperature (°C),Ambient temperature (°C),ASC tube jacket temperature (°C),LED temperature (°C),Box temperature (°C),Sample RH (%),Span deviation,Mass concentration (μg/m³),Mass concentration (μg/m³),Mass concentration (μg/m³)
DateTimeUTC,F1_M11,P_M11,Q1_M11,Q2_M11,T1_M11,T2_M11,T3_M11,T4_M11,T5_M11,U1_M11,ZSPAN_M11,X0_M11,X2_M11,X1_M11
2022-12-23 06:00:00,,0830.6,5.01,0.00,21.5,19.7,00.0,30.4,22.8,02.3,0002.7,0008.38,0004.50,0004.15
2022-12-23 06:01:00,,0830.6,4.96,0.00,21.4,20.0,00.0,30.4,22.9,02.3,0002.4,0008.49,0004.57,0004.17
2022-12-23 06:02:00,,0830.7,5.02,0.00,21.5,21.0,00.0,30.3,23.1,02.3,0002.2,0008.25,0004.61,0004.19
2022-12-23 06:03:00,,0830.9,5.03,0.00,21.6,21.7,00.0,30.3,23.4,02.3,0001.6,0008.39,0004.62,0004.20
2022-12-23 06:04:00,,0831.0,4.97,0.00,21.7,22.1,00.0,30.3,23.5,02.3,0001.6,0008.50,0004.65,0004.22
2022-12-23 06:05:00,,0831.0,5.02,0.00,21.7,21.2,00.0,30.4,23.3,02.3,0002.1,0008.60,0004.70,0004.24
2022-12-23 06:06:00,,0830.8,4.95,0.00,21.6,20.3,00.0,30.4,23.0,02.3,0001.6,0008.85,0004.74,0004.25
2022-12-23 06:07:00,,0830.8,5.03,0.00,21.5,20.0,00.0,30.4,22.9,02.3,0001.1,0009.03,0004.76,0004.27
2022-12-23 06:08:00,,0830.9,5.01,0.00,21.5,20.8,00.0,30.3,23.1,02.3,0001.1,0009.07,0004.78,0004.28
2022-12-23 06:09:00,,0830.8,4.96,0.00,21.6,21.6,00.0,30.3,23.3,02.3,0000.7,0009.58,0004.80,0004.28
2022-12-23 06:10:00,,0830.7,5.03,0.00,21.7,22.1,00.0,30.3,23.5,02.3,0001.0,0009.55,0004.78,0004.27
2022-12-23 06:11:00,,0830.6,4.95,0.00,21.7,21.3,00.0,30.4,23.3,02.3,0001.3,0009.51,0004.77,0004.28
2022-12-23 06:12:00,,0830.7,5.02,0.00,21.6,20.1,00.0,30.4,22.9,02.3,0001.6,0009.40,0004.74,0004.29
2022-12-23 06:13:00,,0830.8,5.02,0.00,21.3,18.9,00.0,30.4,22.3,02.3,0001.4,0009.39,0004.75,0004.30
2022-12-23 06:14:00,,0830.8,5.00,0.00,21.2,19.4,00.0,30.3,22.4,02.4,0001.7,0008.91,0004.74,0004.30
2022-12-23 06:15:00,,0830.7,4.96,0.00,21.3,20.3,00.0,30.2,22.7,02.3,0000.9,0008.91,0004.73,0004.30
2022-12-23 06:16:00,,0830.6,5.04,0.00,21.4,21.0,00.0,30.2,23.0,02.3,0000.3,0008.86,0004.72,0004.30
2022-12-23 06:17:00,,0830.7,4.97,0.00,21.5,21.5,00.0,30.2,23.2,02.3,0000.8,0008.71,0004.74,0004.31
2022-12-23 06:18:00,,0830.7,5.05,0.00,21.6,21.9,00.0,30.2,23.3,02.3,0001.3,0008.57,0004.74,0004.32
2022-12-23 06:19:00,,0830.7,4.97,0.00,21.7,22.2,00.0,30.2,23.4,02.3,0001.2,0008.35,0004.69,0004.31
2022-12-23 06:20:00,,0830.8,5.04,0.00,21.7,21.8,00.0,30.3,23.4,02.3,0001.9,0008.01,0004.71,0004.32
2022-12-23 06:21:00,,0830.8,4.98,0.00,21.6,20.4,00.0,30.3,22.9,02.3,0001.6,0008.12,0004.73,0004.34
2022-12-23 06:22:00,,0830.9,4.97,0.00,21.4,19.2,00.0,30.3,22.4,02.3,0001.6,0008.13,0004.74,0004.34
2022-12-23 06:23:00,,0830.8,5.02,0.00,21.3,19.5,00.0,30.3,22.5,02.4,0001.8,0008.33,0004.74,0004.32
2022-12-23 06:24:00,,0830.8,5.02,0.00,21.4,20.5,00.0,30.2,22.8,02.4,0001.9,0008.40,0004.70,0004.30
2022-12-23 06:25:00,,0830.6,4.97,0.00,21.5,21.3,00.0,30.2,23.0,02.3,0002.2,0008.35,0004.69,0004.30
2022-12-23 06:26:00,,0830.8,5.03,0.00,21.5,21.9,00.0,30.2,23.2,02.3,0003.0,0008.24,0004.66,0004.29
2022-12-23 06:27:00,,0830.8,4.96,0.00,21.6,21.5,00.0,30.2,23.2,02.3,0003.7,0008.16,0004.64,0004.29
2022-12-23 06:28:00,,0830.8,5.03,0.00,21.4,20.2,00.0,30.3,22.8,02.3,0003.8,0008.10,0004.62,0004.27
2022-12-23 06:29:00,,0830.7,4.99,0.00,21.2,19.1,00.0,30.3,22.4,02.4,0003.5,0008.10,0004.59,0004.25
2022-12-23 06:30:00,,0830.8,4.98,0.00,21.2,19.5,00.0,30.2,22.4,02.4,0003.4,0008.24,0004.62,0004.25
2022-12-23 06:31:00,,0830.6,5.03,0.00,21.3,20.4,00.0,30.1,22.7,02.4,0003.1,0008.23,0004.61,0004.24
2022-12-23 06:32:00,,0830.6,4.96,0.00,21.3,21.0,00.0,30.1,22.9,02.4,0001.5,0008.03,0004.57,0004.21
2022-12-23 06:33:00,,0830.7,5.05,0.00,21.4,21.6,00.0,30.1,23.1,02.4,0002.2,0008.02,0004.56,0004.20
2022-12-23 06:34:00,,0830.8,4.97,0.00,21.5,22.0,00.0,30.1,23.3,02.3,0000.0,0007.88,0004.57,0004.21
2022-12-23 06:35:00,,0830.7,5.04,0.00,21.6,22.1,00.0,30.2,23.3,02.3,0000.0,0008.23,0004.58,0004.22
2022-12-23 06:36:00,,0830.5,4.95,0.00,21.5,20.9,00.0,30.2,22.9,02.4,0001.9,0008.48,0004.60,0004.23
2022-12-23 06:37:00,,0830.6,5.03,0.00,21.3,19.5,00.0,30.2,22.4,02.4,0000.7,0008.55,0004.64,0004.25
2022-12-23 06:38:00,,0830.6,5.03,0.00,21.1,18.9,00.0,30.2,22.2,02.4,0000.3,0008.71,0004.64,0004.25
2022-12-23 06:39:00,,0830.5,4.99,0.00,21.2,19.9,00.0,30.1,22.5,02.4,0001.0,0010.31,0004.64,0004.26
2022-12-23 06:40:00,,0830.6,4.99,0.00,21.3,20.7,00.0,30.1,22.7,02.4,0000.5,0010.40,0004.65,0004.26
2022-12-23 06:41:00,,0830.6,5.03,0.00,21.3,21.2,00.0,30.0,22.9,02.4,0000.0,0010.29,0004.63,0004.24
2022-12-23 06:42:00,,0830.6,4.97,0.00,21.4,21.6,00.0,30.0,23.1,02.4,0000.1,0010.23,0004.60,0004.23
2022-12-23 06:43:00,,0830.6,5.00,0.00,21.5,22.0,00.0,30.1,23.2,02.4,0003.5,0010.31,0004.64,0004.24
2022-12-23 06:44:00,,0830.6,5.00,0.00,21.6,22.2,00.0,30.1,23.3,02.4,0003.6,0010.35,0004.67,0004.24
2022-12-23 06:45:00,,0830.6,4.96,0.00,21.7,21.8,00.0,30.2,23.2,02.3,0003.9,0010.31,0004.65,0004.22
2022-12-23 06:46:00,,0830.6,5.04,0.00,21.5,20.3,00.0,30.2,22.7,02.4,0003.8,0009.71,0004.63,0004.21
2022-12-23 06:47:00,,0830.7,5.03,0.00,21.2,19.0,00.0,30.2,22.2,02.4,0003.9,0009.51,0004.61,0004.21
2022-12-23 06:48:00,,0830.7,4.97,0.00,21.1,19.3,00.0,30.1,22.3,02.4,0004.1,0009.47,0004.60,0004.20
2022-12-23 06:49:00,,0830.8,5.00,0.00,21.2,20.4,00.0,30.1,22.6,02.4,0004.3,0009.31,0004.59,0004.19
2022-12-23 06:50:00,,0830.7,5.04,0.00,21.3,21.0,00.0,30.1,22.8,02.4,0003.9,0007.75,0004.58,0004.16
2022-12-23 06:51:00,,0830.7,4.98,0.00,21.4,21.6,00.0,30.1,23.0,02.4,0003.6,0007.68,0004.58,0004.16
2022-12-23 06:52:00,,0830.7,4.97,0.00,21.5,21.9,00.0,30.1,23.2,02.4,0003.8,0007.66,0004.57,0004.17
2022-12-23 06:53:00,,0830.6,5.04,0.00,21.6,22.1,00.0,30.1,23.3,02.3,0004.0,0007.71,0004.58,0004.17
2022-12-23 06:54:00,,0830.6,4.96,0.00,21.6,21.9,00.0,30.2,23.3,02.3,0003.7,0007.63,0004.54,0004.17
2022-12-23 06:55:00,,0830.5,5.05,0.00,21.5,20.5,00.0,30.2,22.8,02.3,0003.6,0007.61,0004.52,0004.15
2022-12-23 06:56:00,,0830.5,4.98,0.00,21.3,19.3,00.0,30.2,22.5,02.4,0003.3,0007.66,0004.54,0004.15
2022-12-23 06:57:00,,0830.6,4.98,0.00,21.2,19.5,00.0,30.2,22.4,02.4,0003.1,0007.73,0004.57,0004.16
2022-12-23 06:58:00,,0830.6,5.02,0.00,21.3,20.4,00.0,30.1,22.7,02.4,0003.2,0007.75,0004.58,0004.15
2022-12-23 06:59:00,,0830.5,4.99,0.00,21.4,21.0,00.0,30.1,22.9,02.4,0003.0,0007.72,0004.56,0004.14
